Location: Peebles
(55.6412°N, 3.1714°W)
Time: 14:26:53
(UTC+01:00)

Terra - Pass Details

Date: 26 September 2021
Orbit: 701 x 703 km, 98.2° (Epoch: 18 October)

Event Time Altitude Azimuth Distance (km) Brightness Sun altitude
Exits shadow 21:34:22 26° 57° (ENE) 1,365 3.0 -21.5°
Drops below altitude 10° 21:38:18 10° 2° (N) 2,184 4.7 -22.0°
Sets 21:40:51 0° 350° (N) 3,107 5.8 -22.3°
